Zurück zum Katalog

HODOYOSHI 4

AktivWissenschaftSSO
NORAD 40011·PAYLOAD·🇯🇵 Japan

Gestartet Jun 19, 2014 von Dombarovsky

Loading…

Nächste Überflüge (nächste 24 Stunden)

TLE

AktuellSource: Space-Track

Epoche: Sep 14, 2026, 14:12 UTC

1 40011U 14033B   26257.59229502  .00000939  00000-0  10670-3 0  9991
2 40011  97.5474  78.1316 0024002  12.7605 347.4215 14.88308313662109

Verfolge HODOYOSHI 4 in Echtzeit mit AllMySat

Download on the App Store